Location: Unspecified
(0.0000°N, 0.0000°E)
Time: 14:01:09
(UTC+00:00)

Envisat - Pass Details

Date: 26 November 2020
Orbit: 764 x 766 km, 98.1° (Epoch: 28 November)

Event Time Altitude Azimuth Distance (km) Brightness Sun altitude
Rises 05:16:33 0° 18° (NNE) 3,214 6.2 -7.2°
Reaches altitude 10° 05:18:52 10° 22° (NNE) 2,291 5.5 -6.7°
Maximum altitude 05:23:51 62° 102° (ESE) 855 3.7 -5.5°
Drops below altitude 10° 05:28:51 10° 182° (S) 2,301 5.7 -4.3°
Sets 05:31:11 0° 185° (S) 3,230 6.5 -3.8°
